This is the latest recevied weather packets stored in our database for station/object N6GPM. If no packets are shown the sender has not sent any weather packets the latest 1 day(s).
| Time | Temp. | Humidity | Pressure | Rain* | Wind** | Luminosity | Snow |
|---|---|---|---|---|---|---|---|
| 1777981899 | 10.56° C | 94% | 1016.2 hPa | 0 mm | 0 m/s | 0 W/m² | - |
| 1777981596 | 10.56° C | 94% | 1016.2 hPa | 0 mm | 0 m/s | 0 W/m² | - |
| 1777981293 | 10.56° C | 94% | 1016.3 hPa | 0 mm | 0 m/s | 0 W/m² | - |
| 1777980989 | 10.56° C | 94% | 1016.3 hPa | 0 mm | 0 m/s | 0 W/m² | - |
| 1777980686 | 10.56° C | 94% | 1016.4 hPa | 0 mm | 0 m/s | 0 W/m² | - |
| 1777980382 | 10.56° C | 94% | 1016.4 hPa | 0 mm | 0 m/s | 0 W/m² | - |
| 1777980080 | 10.56° C | 94% | 1016.4 hPa | 0 mm | 1.34 m/s, 168° | 0 W/m² | - |
| 1777979774 | 10.56° C | 94% | 1016.3 hPa | 0 mm | 0 m/s | 0 W/m² | - |
| 1777979470 | 10.56° C | 94% | 1016.3 hPa | 0 mm | 0.89 m/s, 168° | 0 W/m² | - |
| 1777979167 | 10.56° C | 93% | 1016.1 hPa | 0 mm | 0 m/s | 0 W/m² | - |
| 1777978864 | 10.56° C | 93% | 1016.3 hPa | 0 mm | 0 m/s | 0 W/m² | - |
| 1777978560 | 10.56° C | 93% | 1016.3 hPa | 0 mm | 0 m/s | 0 W/m² | - |
| 1777978256 | 10.56° C | 93% | 1016.2 hPa | 1.27 mm | 0 m/s | 0 W/m² | - |
| 1777977953 | 10.56° C | 93% | 1016.3 hPa | 1.27 mm | 0 m/s | 0 W/m² | - |
| 1777977651 | 10.56° C | 93% | 1016.3 hPa | 1.78 mm | 0.89 m/s, 165° | 0 W/m² | - |
| 1777977347 | 10.56° C | 92% | 1016.4 hPa | 1.78 mm | 0 m/s | 0 W/m² | - |
| 1777977045 | 10.56° C | 92% | 1016.5 hPa | 1.27 mm | 0 m/s | 0 W/m² | - |
| 1777976742 | 10.56° C | 92% | 1016.5 hPa | 3.05 mm | 0 m/s | 0 W/m² | - |
| 1777976439 | 10.56° C | 92% | 1016.5 hPa | 1.78 mm | 0 m/s | 0 W/m² | - |
| 1777976138 | 10.56° C | 91% | 1016.5 hPa | 0 mm | 0.45 m/s, 150° | 0 W/m² | - |
| 1777975833 | 10.56° C | 91% | 1016.7 hPa | 0 mm | 0 m/s | 0 W/m² | - |
| 1777975531 | 10.56° C | 92% | 1016.5 hPa | 0 mm | 0 m/s | 0 W/m² | - |
| 1777975228 | 10.56° C | 92% | 1016.8 hPa | 0 mm | 0 m/s | 0 W/m² | - |
| 1777974924 | 10.56° C | 92% | 1016.7 hPa | 0 mm | 0 m/s | 0 W/m² | - |
| 1777974620 | 10.56° C | 92% | 1016.8 hPa | 0 mm | 0 m/s | 0 W/m² | - |
* Rain latest hour (hover to see other rain measurements)
** Current wind speed in m/s (hover to see current wind gust speed)